Regional Weather Roundup
Issued by NWS

Home | Current Version | Previous Version | Text Only | Print | Product List | Glossary Off
Versions: 1 2 3 4 5 6 7 8 9 10 11 12 13 14 15 16 17 18 19 20 21 22 23 24 25 26 27 28 29 30 31 32 33 34 35 36 37 38 39 40 41 42 43 44 45 46 47 48 49 50

000
ASUS43 KLSX 290107
RWRMO

WEATHER SUMMARY FOR MISSOURI
NATIONAL WEATHER SERVICE SPRINGFIELD MO
800 PM CDT THU AUG 28 2014

NOTE: "FAIR" INDICATES FEW OR NO CLOUDS BELOW 12,000 FEET WITH NO
       SIGNIFICANT WEATHER AND/OR OBSTRUCTIONS TO VISIBILITY.
       CURRENT SKY AND/OR WEATHER CONDITIONS ARE NOT AVAILABLE FOR
       CHILLICOTHE AND FARMINGTON.

MOZ001>031-035>038-043-044-053-054-290200-
...NORTHERN AND WESTERN MISSOURI...

CITY           SKY/WX    TMP DP  RH WIND       PRES   REMARKS
KANSAS CTY INT PTCLDY    84  67  56 S16       29.84F
KANSAS C DTWN  CLEAR     89  64  43 S10G20    29.84F HX  90
LEE`S SUMMIT   CLEAR     85  67  54 S3        29.88S
ST JOSEPH      PTCLDY    83  71  67 SE9       29.83S
CHILLICOTHE      N/A     81  73  76 CALM      29.89S
KIRKSVILLE     CLEAR     77  73  87 E7        29.93S

$$
MOZ066>068-077>081-088>096-101>105-290200-
...SOUTHWEST MISSOURI...

CITY           SKY/WX    TMP DP  RH WIND       PRES   REMARKS
SPRINGFIELD    CLEAR     84  59  42 S8        29.93R
JOPLIN         CLEAR     83  61  47 S6        29.92R

$$
MOZ032>034-039>042-045>050-055>058-069>072-290200-
...CENTRAL MISSOURI...

CITY           SKY/WX    TMP DP  RH WIND       PRES   REMARKS
COLUMBIA       CLEAR     86  66  51 SE5       29.92R
JEFFERSON CITY CLEAR     85  68  56 E5        29.90R
ROLLA          CLEAR     82  64  54 SE6       29.94R
SEDALIA        CLEAR     84  68  58 SE5       29.91R
WHITEMAN AFB   PTCLDY    81  74  78 SE5       29.89R
OSAGE BEACH    CLEAR     84  64  51 SE3       29.92R

$$
MOZ051-052-059>065-290200-
...EAST CENTRAL MISSOURI...

CITY           SKY/WX    TMP DP  RH WIND       PRES   REMARKS
ST LOUIS INTL  MOCLDY    81  69  67 SE14      29.98R
SPIRIT OF STL  MOCLDY    76  72  87 E7        29.95R
ST CHARLES     MOCLDY    74  72  93 E12       29.96R

$$
MOZ072>076-082>087-097>100-106>115-290200-
...SOUTH CENTRAL AND SOUTHEAST MISSOURI...

CITY           SKY/WX    TMP DP  RH WIND       PRES   REMARKS
CAPE GIRARDEAU CLOUDY    75  71  87 E6        29.97S
FARMINGTON     MOCLDY    75  70  83 E5        30.00F
POPLAR BLUFF   PTCLDY    83  69  62 E3        29.93S
WEST PLAINS    CLEAR     83  62  49 SE5       29.97R

$$


USA.gov is the U.S. government's official web portal to all federal, state and local government web resources and services.